Regional Weather Roundup
Issued by NWS

Home | Current Version | Previous Version | Graphics & Text | Print | Product List | Glossary On
Versions: 1 2 3 4 5 6 7 8 9 10 11 12 13 14 15 16 17 18 19 20 21 22 23 24 25 26 27 28 29 30 31 32 33 34 35 36 37 38 39 40 41 42 43 44 45 46 47 48 49 50
498
ASUS43 KBIS 070802
RWRND

NORTH DAKOTA REGIONAL WEATHER ROUNDUP
NATIONAL WEATHER SERVICE BISMARCK ND
200 AM CST WED DEC 07 2016

NOTE: "FAIR" INDICATES FEW OR NO CLOUDS BELOW 12,000 FEET WITH NO
SIGNIFICANT WEATHER AND/OR OBSTRUCTIONS TO VISIBILITY.


NDZ001>003-009>011-017-070900-
NORTHWEST NORTH DAKOTA

CITY           SKY/WX    TMP DP  RH WIND       PRES   REMARKS
WILLISTON      CLOUDY     4  -3  73 NW14      30.21R WCI -14
MINOT          LGT SNOW   7   3  84 W33G44    30.02R VSB 3/4 WCI -17
MINOT AFB      SNOW       6   2  84 NW36G41   30.01R VSB 1/2 WCI -19
$$

NDZ018>021-031>035-040>046-070900-
SOUTHWEST NORTH DAKOTA

CITY           SKY/WX    TMP DP  RH WIND       PRES   REMARKS
BISMARCK       CLOUDY     4  -1  80 W21G26    30.10R WCI -17
DICKINSON      CLOUDY    -1  -7  75 NW23G31   30.11R WCI -25
GARRISON         N/A      4   0  83 NW29G40   30.04S WCI -20
HETTINGER ARPT MOCLDY    -1  -8  72 NW28G36   30.13R WCI -26
$$

NDZ004>008-012>016-024-026-027-054-070900-
NORTHEAST NORTH DAKOTA

CITY           SKY/WX    TMP DP  RH WIND       PRES   REMARKS
GRAND FORKS    LGT SNOW  16  12  84 W32G40    29.78R VSB 3/4 WCI  -5
GRND FRKS AFB  LGT SNOW  14   9  80 NW28G36   29.79R WCI  -6
DEVILS LAKE    LGT SNOW   8   4  83 NW33G40   29.85R FOG     WCI -16
$$

NDZ022-023-025-028>030-036>039-047>053-070900-
SOUTHEAST NORTH DAKOTA

CITY           SKY/WX    TMP DP  RH WIND       PRES   REMARKS
FARGO          LGT SNOW  14   8  77 W25G36    29.86R WCI  -5
JAMESTOWN      MOCLDY     8   4  83 NW30G38   29.92R BLWGSNOWWCI -15
$$





USA.gov is the U.S. government's official web portal to all federal, state and local government web resources and services.